Location: Castillon
(43.0896°N, 0.2156°E)
Time: 20:30:47
(UTC+00:00)

Cosmos 1844 - Pass Details

Date: 16 June 2021
Orbit: 824 x 867 km, 70.9° (Epoch: 23 July)

Event Time Altitude Azimuth Distance (km) Brightness Sun altitude
Rises 21:19:16 0° 339° (NNW) 3,369 8.4 -13.9°
Reaches altitude 10° 21:21:47 10° 345° (NNW) 2,435 7.2 -14.2°
Maximum altitude 21:27:11 49° 60° (ENE) 1,062 4.2 -14.8°
Enters shadow 21:30:39 21° 126° (SE) 1,767 4.8 -15.2°
